Tracking 18980 objects as of 20-Feb-2018
HD Live streaming from Space Station
objects crossing your sky now

FENGYUN 1C DEB

Track FENGYUN 1C DEB now!
10-day predictions


NORAD ID: 30047
Int'l Code: 1999-025NY
Perigee: 839.4 km
Apogee: 1,032.6 km
Inclination: 99.9 °
Period: 103.6 minutes
Semi major axis: 7306 km
RCS: 0.038 m2 (small)
Launch date: May 10, 1999
Source: People's Republic of China (PRC)
Launch site: Taiyaun Space Center, China (TSC)

Note: This is SATELLITE DEBRIS
aabbcc
Your satellite tracking list
Your tracking list is empty




NASA's NSSDC Master Catalog

Two Line Element Set (TLE):
1 30047U 99025NY  18050.76020381 +.00000133 +00000-0 +13893-3 0  9994
2 30047 099.8652 342.8161 0132185 309.0299 102.6321 13.89939613562462
Source of the keplerian elements: AFSPC